Regional Weather Roundup
Issued by NWS

Home | Current Version | Previous Version | Text Only | Print | Product List | Glossary On
Versions: 1 2 3 4 5 6 7 8 9 10 11 12 13 14 15 16 17 18 19 20 21 22 23 24 25 26 27 28 29 30 31 32 33 34 35 36 37 38 39 40 41 42 43 44 45 46 47 48 49 50
000
ASCA44 KEWX 251120
RWRMX

LATIN AMERICA AND CARIBBEAN REGIONAL WEATHER ROUNDUP
NATIONAL WEATHER SERVICE AUSTIN/SAN ANTONIO TX
600 AM CDT SUN SEP 25 2016

NOTE: "FAIR" INDICATED FEW OR NO CLOUDS BELOW 12,000 FEET WITH NO
SIGNIFICANT WEATHER AND/OR OBSTRUCTIONS TO VISIBILITY.

BAJA CALIFORNIA

CITY           SKY/WX    TMP DP  RH WIND       PRES   REMARKS
LA PAZ         CLEAR     73  72  94 CALM      29.92
S.J. DEL CABO    N/A    N/A N/A N/A MISG        N/A
TIJUANA        CLEAR     66  43  42 CALM      29.99

NORTHWESTERN MEXICO

CITY           SKY/WX    TMP DP  RH WIND       PRES   REMARKS
HERMOSILLO     CLEAR     72  57  60 CALM      29.91

NORTHEASTERN MEXICO

CITY           SKY/WX    TMP DP  RH WIND       PRES   REMARKS
CHIHUAHUA      MOCLDY    61  61 100 N6        30.10
MONCLOVA         N/A    N/A N/A N/A MISG        N/A
MONTERREY      MOCLDY    73  68  83 CALM      29.87R
REYNOSA          N/A    N/A N/A N/A MISG        N/A
SALTILLO       PTCLDY    66  57  72 CALM      30.13
CD. VICTORIA     N/A    N/A N/A N/A MISG        N/A

WESTERN MEXICO

CITY           SKY/WX    TMP DP  RH WIND       PRES   REMARKS
AGUASCALIENTES CLOUDY    57  54  88 CALM      30.23
COLIMA         PTCLDY    72  70  94 CALM      29.99
DEL BAJIO      PTCLDY    59  59 100 CALM      30.25R
GUADALAJARA    PTCLDY    61  59  94 CALM      30.15
MAZATLAN       PTCLDY    73  72  94 NE5       29.88F
P. VALLARTA    CLEAR     73  73 100 NE7       29.88S
URUAPAN          N/A    N/A N/A N/A MISG        N/A
ZACATECAS        N/A    N/A N/A N/A MISG        N/A

CENTRAL MEXICO

CITY           SKY/WX    TMP DP  RH WIND       PRES   REMARKS
CUERNAVACA       N/A    N/A N/A N/A MISG        N/A
MEXICO CITY    CLOUDY    59  55  88 E5        30.28R
MORELIA        MOCLDY    59  59 100 CALM      30.19
POZA RICA        N/A    N/A N/A N/A MISG        N/A
QUERETARO      MOCLDY    59  59 100 CALM      30.26S
S. LUIS POTOSI MOCLDY    61  57  88 CALM      30.21
TAMPICO        PTCLDY    81  75  83 CALM      29.89
TOLUCA         CLOUDY    54  52  94 CALM      30.34  FOG

SOUTHERN MEXICO

CITY           SKY/WX    TMP DP  RH WIND       PRES   REMARKS
ACAPULCO       CLOUDY    77  75  94 NW2       29.85F
B. DE HUATULCO   N/A    N/A N/A N/A MISG        N/A
OAXACA         CLOUDY    64  61  88 SW3       30.18
P. ESCONDIDO     N/A    N/A N/A N/A MISG        N/A
VERACRUZ       LGT RAIN  75  73  94 NE5       29.90

YUCATAN PENINSULA

CITY           SKY/WX    TMP DP  RH WIND       PRES   REMARKS
CAMPECHE       MOCLDY    75  75 100 E12       29.87
CANCUN         MOCLDY    81  77  89 E6        29.92R
CHETUMAL         N/A    N/A N/A N/A MISG        N/A
CD. DEL CARMEN CLOUDY    81  75  83 SE9       29.86
COZUMEL        MOCLDY    73  72  94 CALM      29.91R
MERIDA         MOCLDY    75  72  88 CALM      29.92R
MINATITLAN       N/A    N/A N/A N/A MISG        N/A
TAPACHULA      PTCLDY    73  72  94 E6        29.83
TUX. GUTIERREZ CLOUDY    68  68 100 SW3       29.95  FOG
VILLAHERMOSA   PTCLDY    73  73 100 CALM      29.88R

CENTRAL AMERICA

CITY           SKY/WX    TMP DP  RH WIND       PRES   REMARKS
BELIZE CITY    TSTM      75  75 100 CALM      29.94
MANAGUA        MOSUNNY   75  72  88 CALM      29.83F

CARIBBEAN

CITY           SKY/WX    TMP DP  RH WIND       PRES   REMARKS
ARUBA          PTCLDY    84  77  79 E13       29.89R HX  94
KINGSTON       PTCLDY    82  73  74 N7        29.92S
NASSAU         MOCLDY    81  73  78 CALM      29.99
SAN JUAN       MOSUNNY   81  75  83 CALM      29.97R
SANTO DOMINGO  PTCLDY    73  73 100 CALM      29.94R
ST. CROIX      SUNNY     79  75  89 N5        29.97R
ST. KITTS      MOSUNNY   82  77  83 NE9       29.94S HX  91
ST. MAARTEN    LGT RAIN  82  79  89 E7        29.94R HX  93
ST. THOMAS     SUNNY     82  77  83 E5        29.95S HX  91

$$





USA.gov is the U.S. government's official web portal to all federal, state and local government web resources and services.